Weather History for Paris Le Bourget, France

Change the Weather History Date:

Sunday, November 25, 2012

  Actual Average Record
Temperature  
Mean Temperature 50 °F -  
Max Temperature 59 °F 44 °F 66 °F (2006)
Min Temperature 42 °F 36 °F 28 °F (2008)
Degree Days  
Heating Degree Days 14    
Moisture  
Dew Point 42 °F    
Average Humidity 72    
Maximum Humidity 93    
Minimum Humidity 58    
Precipitation  
Precipitation 0.00 in 0.07 in - ()
Sea Level Pressure  
Sea Level Pressure 29.88 in    
Wind  
Wind Speed 17 mph ()    
Max Wind Speed 30 mph    
Max Gust Speed 45 mph    
Visibility 6.2 miles    
Events Rain    
Averages and records for this station are not official NWS values.
T = Trace of Precipitation, MM = Missing Value Source: Averaged Metar Reports

Daily Weather History Graph

Daily Weather History Graph

Search for Another Location

Airport:

Trip Planner

Search our weather history database for the weather conditions in past years. The results will help you decide how hot, cold, wet, or windy it might be!

Date:

Astronomy

Nov. 25, 2012 Rise Set
Actual Time 8:15 AM CET 4:59 PM CET
Civil Twilight 7:39 AM CET 5:35 PM CET
Nautical Twilight 6:59 AM CET 6:14 PM CET
Astronomical Twilight 6:22 AM CET 6:52 PM CET
Moon 3:17 PM CET (11/25) 5:03 AM CET (11/25)
Length of Visible Light 9h 55m
Length of Day
8h 44m
Waxing Gibbous, 91% of the Moon is Illuminated
Nov 25
Waxing Gibbous
Nov 28
Full
Dec 6
Last Quarter
Dec 13
New
Dec 20
First Quarter

Hourly Weather History & Observations

Time (CET) Temp. Windchill Dew Point Humidity Pressure Visibility Wind Dir Wind Speed Gust Speed Precip Events Conditions
12:00 AM 59.0 °F - 48.2 °F 67% 29.68 in 6.2 mi SSW 29.9 mph 44.9 mph N/A   Overcast
12:30 AM 57.2 °F - 48.2 °F 72% 29.68 in 6.2 mi SSW 25.3 mph 36.8 mph N/A   Overcast
1:00 AM 57.2 °F - 48.2 °F 72% 29.71 in 6.2 mi SSW 24.2 mph - N/A   Overcast
1:30 AM 57.2 °F - 48.2 °F 72% 29.71 in 6.2 mi SSW 23.0 mph - N/A   Overcast
2:00 AM 57.2 °F - 46.4 °F 67% 29.74 in 6.2 mi SSW 19.6 mph - N/A   Overcast
2:30 AM 57.2 °F - 46.4 °F 67% 29.74 in 6.2 mi SSW 20.7 mph 33.4 mph N/A   Overcast
3:00 AM 55.4 °F - 46.4 °F 72% 29.77 in 6.2 mi SW 15.0 mph - N/A   Overcast
3:30 AM 55.4 °F - 48.2 °F 77% 29.77 in 6.2 mi SW 19.6 mph - N/A   Mostly Cloudy
4:00 AM 55.4 °F - 46.4 °F 72% 29.77 in 6.2 mi SSW 19.6 mph - N/A   Mostly Cloudy
4:30 AM 55.4 °F - 46.4 °F 72% 29.77 in 6.2 mi SSW 21.9 mph - N/A   Overcast
5:00 AM 53.6 °F - 44.6 °F 72% 29.80 in 6.2 mi SW 20.7 mph - N/A   Mostly Cloudy
5:30 AM 53.6 °F - 42.8 °F 67% 29.83 in 6.2 mi SW 17.3 mph - N/A   Overcast
6:00 AM 53.6 °F - 44.6 °F 72% 29.86 in 6.2 mi SW 21.9 mph - N/A   Mostly Cloudy
6:30 AM 51.8 °F - 44.6 °F 76% 29.86 in 6.2 mi WSW 17.3 mph - N/A   Overcast
7:00 AM 50.0 °F - 46.4 °F 87% 29.89 in 6.2 mi West 15.0 mph - N/A Rain Light Rain
7:30 AM 50.0 °F - 44.6 °F 82% 29.89 in 6.2 mi WSW 11.5 mph - N/A   Mostly Cloudy
8:00 AM 50.0 °F - 41.0 °F 71% 29.92 in 6.2 mi WSW 19.6 mph 31.1 mph N/A   Overcast
8:30 AM 50.0 °F - 41.0 °F 71% 29.92 in 6.2 mi WSW 18.4 mph - N/A   Unknown
9:00 AM 50.0 °F - 39.2 °F 66% 29.95 in 6.2 mi SW 17.3 mph - N/A   Overcast
9:30 AM 50.0 °F - 41.0 °F 71% 29.95 in 6.2 mi WSW 19.6 mph - N/A   Scattered Clouds
10:00 AM 50.0 °F - 39.2 °F 66% 29.98 in 6.2 mi SW 17.3 mph - N/A   Unknown
10:30 AM 50.0 °F - 39.2 °F 66% 29.98 in 6.2 mi SW 13.8 mph - N/A   Unknown
11:00 AM 50.0 °F - 41.0 °F 71% 29.98 in 6.2 mi SW 11.5 mph - N/A   Unknown
11:30 AM 50.0 °F - 39.2 °F 66% 29.98 in 6.2 mi SW 16.1 mph - N/A   Unknown
12:00 PM 51.8 °F - 41.0 °F 67% 29.98 in 6.2 mi SW 16.1 mph - N/A   Unknown
12:30 PM 51.8 °F - 39.2 °F 62% 29.98 in 6.2 mi SW 17.3 mph - N/A   Unknown
1:00 PM 53.6 °F - 39.2 °F 58% 29.98 in 6.2 mi SW 12.7 mph - N/A   Unknown
1:30 PM 53.6 °F - 41.0 °F 62% 29.98 in 6.2 mi SSW 12.7 mph - N/A   Partly Cloudy
2:00 PM 53.6 °F - 39.2 °F 58% 29.95 in 6.2 mi SW 15.0 mph - N/A   Partly Cloudy
2:30 PM 53.6 °F - 39.2 °F 58% 29.95 in 6.2 mi SW 15.0 mph - N/A   Scattered Clouds
3:00 PM 53.6 °F - 41.0 °F 62% 29.95 in 6.2 mi SSW 16.1 mph - N/A   Mostly Cloudy
3:30 PM 51.8 °F - 41.0 °F 67% 29.95 in 6.2 mi SSW 17.3 mph - N/A   Mostly Cloudy
4:00 PM 53.6 °F - 41.0 °F 62% 29.95 in 6.2 mi SSW 12.7 mph - N/A   Mostly Cloudy
4:30 PM 51.8 °F - 41.0 °F 67% 29.95 in 6.2 mi SSW 15.0 mph - N/A   Mostly Cloudy
5:00 PM 51.8 °F - 41.0 °F 67% 29.95 in 6.2 mi SSW 10.4 mph - N/A   Mostly Cloudy
5:30 PM 50.0 °F - 41.0 °F 71% 29.95 in 6.2 mi SSW 10.4 mph - N/A   Partly Cloudy
6:00 PM 50.0 °F - 42.8 °F 76% 29.95 in 6.2 mi South 10.4 mph - N/A   Partly Cloudy
6:30 PM 50.0 °F - 42.8 °F 76% 29.92 in 6.2 mi South 11.5 mph - N/A   Unknown
7:00 PM 50.0 °F - 42.8 °F 76% 29.92 in 6.2 mi South 11.5 mph - N/A   Unknown
7:30 PM 48.2 °F - 41.0 °F 76% 29.92 in 6.2 mi South 9.2 mph - N/A   Unknown
8:00 PM 46.4 °F 41.9 °F 41.0 °F 81% 29.92 in 6.2 mi South 9.2 mph - N/A   Scattered Clouds
8:30 PM 46.4 °F 41.9 °F 41.0 °F 81% 29.89 in 6.2 mi South 9.2 mph - N/A   Unknown
9:00 PM 46.4 °F 41.9 °F 41.0 °F 81% 29.89 in 6.2 mi South 9.2 mph - N/A   Unknown
9:30 PM 44.6 °F 40.2 °F 39.2 °F 81% 29.89 in 6.2 mi South 8.1 mph - N/A   Unknown
10:00 PM 44.6 °F 40.7 °F 39.2 °F 81% 29.89 in 6.2 mi South 6.9 mph - N/A   Unknown
10:30 PM 44.6 °F 40.2 °F 41.0 °F 87% 29.86 in 6.2 mi South 8.1 mph - N/A   Unknown
11:00 PM 42.8 °F 38.0 °F 41.0 °F 93% 29.86 in 6.2 mi SSE 8.1 mph - N/A   Unknown
11:30 PM 42.8 °F 38.0 °F 41.0 °F 93% 29.86 in 6.2 mi SSE 8.1 mph - N/A   Unknown